Location: *
(2.5500°S, 65.9667°W)
Time: 21:55:56
(UTC+00:00)

Cosmos 2173 Rocket - Pass Details

Date: 01 June 2022
Orbit: 945 x 1000 km, 83.0° (Epoch: 02 July)

Event Time Altitude Azimuth Distance (km) Brightness Sun altitude
Rises 08:56:08 0° 33° (NNE) 3,660 7.9 -20.8°
Reaches altitude 10° 08:59:52 10° 55° (NE) 2,729 7.5 -19.9°
Maximum altitude 09:03:14 15° 88° (E) 2,391 7.0 -19.1°
Drops below altitude 10° 09:06:37 10° 121° (ESE) 2,753 6.8 -18.3°
Sets 09:10:22 0° 143° (SE) 3,713 7.2 -17.5°
